Temp Live/Airport Stang Messungen

Zurück zum Überblick

Zeitpunkt Temperatur Luftfeuchte
21.09.2021 23:37:18 14,4 C 79,0%
21.09.2021 23:30:17 14,6 C 78,0%
21.09.2021 23:23:13 14,7 C 77,0%
21.09.2021 23:16:11 14,9 C 77,0%
21.09.2021 23:09:08 15,0 C 77,0%
21.09.2021 23:02:06 15,2 C 77,0%
21.09.2021 22:55:06 15,3 C 76,0%
21.09.2021 22:48:05 15,4 C 76,0%
21.09.2021 22:41:01 15,5 C 75,0%
21.09.2021 22:33:59 15,5 C 75,0%
21.09.2021 22:26:57 15,6 C 75,0%
21.09.2021 22:19:55 15,7 C 75,0%
21.09.2021 22:12:55 15,8 C 75,0%
21.09.2021 22:05:52 15,9 C 75,0%
21.09.2021 21:58:51 15,9 C 74,0%
21.09.2021 21:51:50 16,0 C 74,0%
21.09.2021 21:44:48 16,1 C 74,0%
21.09.2021 21:37:47 16,1 C 74,0%
21.09.2021 21:30:44 16,3 C 73,0%
21.09.2021 21:23:41 16,3 C 73,0%
21.09.2021 21:16:39 16,3 C 72,0%
21.09.2021 21:09:37 16,4 C 73,0%
21.09.2021 21:02:34 16,3 C 73,0%
21.09.2021 20:55:32 16,3 C 73,0%
21.09.2021 20:48:30 16,3 C 73,0%
21.09.2021 20:41:29 16,2 C 75,0%
21.09.2021 20:34:29 16,1 C 76,0%
21.09.2021 20:27:27 16,2 C 75,0%
21.09.2021 20:20:25 16,2 C 75,0%
21.09.2021 20:13:25 16,3 C 76,0%
21.09.2021 20:06:23 16,3 C 75,0%
21.09.2021 19:59:22 16,4 C 76,0%
21.09.2021 19:52:20 16,6 C 74,0%
21.09.2021 19:45:19 16,7 C 73,0%
21.09.2021 19:38:19 16,8 C 73,0%
21.09.2021 19:31:15 16,8 C 74,0%
21.09.2021 19:24:13 17,0 C 73,0%
21.09.2021 19:17:13 17,1 C 72,0%
21.09.2021 19:10:10 17,3 C 70,0%
21.09.2021 19:03:06 17,3 C 70,0%
21.09.2021 18:56:04 17,4 C 70,0%
21.09.2021 18:49:03 17,5 C 70,0%
21.09.2021 18:42:02 17,6 C 69,0%
21.09.2021 18:35:00 17,6 C 69,0%
21.09.2021 18:27:57 17,8 C 69,0%
21.09.2021 18:20:55 17,8 C 69,0%
21.09.2021 18:13:54 17,9 C 68,0%
21.09.2021 18:06:52 18,0 C 68,0%
21.09.2021 17:59:52 18,2 C 67,0%
21.09.2021 17:52:50 18,4 C 67,0%
21.09.2021 17:45:48 18,5 C 67,0%
21.09.2021 17:38:47 18,7 C 67,0%
21.09.2021 17:31:44 19,0 C 66,0%
21.09.2021 17:24:42 19,3 C 66,0%
21.09.2021 17:17:42 19,9 C 65,0%
21.09.2021 17:10:40 20,1 C 65,0%
21.09.2021 17:03:39 19,5 C 66,0%
21.09.2021 16:56:38 19,4 C 66,0%
21.09.2021 16:49:35 19,3 C 66,0%
21.09.2021 16:42:33 19,5 C 66,0%
21.09.2021 16:35:31 19,2 C 66,0%
21.09.2021 16:28:29 19,0 C 66,0%
21.09.2021 16:21:27 18,9 C 66,0%
21.09.2021 16:14:24 18,8 C 66,0%
21.09.2021 16:07:22 18,9 C 66,0%
21.09.2021 16:00:19 19,0 C 66,0%
21.09.2021 15:53:17 19,0 C 66,0%
21.09.2021 15:46:15 19,2 C 66,0%
21.09.2021 15:39:12 19,3 C 66,0%
21.09.2021 15:32:10 19,3 C 65,0%
21.09.2021 15:25:08 19,3 C 65,0%
21.09.2021 15:18:05 19,3 C 64,0%
21.09.2021 15:11:03 19,5 C 64,0%
21.09.2021 15:04:01 19,8 C 64,0%
21.09.2021 14:57:01 19,9 C 64,0%
21.09.2021 14:49:59 19,8 C 65,0%
21.09.2021 14:42:58 19,6 C 66,0%
21.09.2021 14:35:55 19,3 C 66,0%
21.09.2021 14:28:53 19,3 C 66,0%
21.09.2021 14:21:52 19,1 C 67,0%
21.09.2021 14:14:49 18,9 C 67,0%
21.09.2021 14:07:48 18,7 C 68,0%
21.09.2021 14:00:46 18,8 C 69,0%
21.09.2021 13:53:46 18,7 C 70,0%
21.09.2021 13:46:43 18,7 C 73,0%
21.09.2021 13:39:42 18,4 C 73,0%
21.09.2021 13:32:39 18,1 C 72,0%
21.09.2021 13:25:36 17,9 C 73,0%
21.09.2021 13:18:35 17,8 C 73,0%
21.09.2021 13:11:34 17,8 C 73,0%
21.09.2021 13:04:32 18,1 C 73,0%
21.09.2021 12:57:31 17,8 C 76,0%
21.09.2021 12:50:28 17,4 C 76,0%
21.09.2021 12:43:25 17,4 C 76,0%
21.09.2021 12:36:23 17,2 C 76,0%
21.09.2021 12:29:20 17,0 C 76,0%
21.09.2021 12:22:20 17,0 C 77,0%
21.09.2021 12:15:17 17,0 C 77,0%
21.09.2021 12:08:16 17,1 C 78,0%
21.09.2021 12:01:14 16,8 C 78,0%
21.09.2021 11:54:12 16,6 C 79,0%
21.09.2021 11:47:09 16,3 C 80,0%
21.09.2021 11:40:06 16,1 C 80,0%
21.09.2021 11:33:04 15,9 C 80,0%
21.09.2021 11:26:00 15,9 C 80,0%
21.09.2021 11:19:00 15,8 C 81,0%
21.09.2021 11:11:58 15,5 C 82,0%
21.09.2021 11:04:55 15,4 C 82,0%
21.09.2021 10:57:54 15,7 C 82,0%
21.09.2021 10:50:51 15,4 C 83,0%
21.09.2021 10:43:50 15,2 C 84,0%
21.09.2021 10:36:49 15,2 C 83,0%
21.09.2021 10:29:48 15,0 C 84,0%
21.09.2021 10:22:46 14,8 C 85,0%
21.09.2021 10:15:45 14,5 C 86,0%
21.09.2021 10:08:44 14,4 C 86,0%
21.09.2021 10:01:40 14,3 C 86,0%
21.09.2021 09:54:38 14,0 C 87,0%
21.09.2021 09:47:36 13,9 C 87,0%
21.09.2021 09:40:33 13,7 C 87,0%
21.09.2021 09:33:32 13,7 C 87,0%
21.09.2021 09:26:30 13,6 C 87,0%
21.09.2021 09:19:29 13,6 C 87,0%
21.09.2021 09:12:28 13,6 C 88,0%
21.09.2021 09:05:25 13,6 C 87,0%
21.09.2021 08:58:24 13,6 C 88,0%
21.09.2021 08:51:23 13,7 C 88,0%
21.09.2021 08:44:20 13,8 C 88,0%
21.09.2021 08:37:17 13,9 C 88,0%
21.09.2021 08:30:16 13,9 C 88,0%
21.09.2021 08:23:13 13,8 C 88,0%
21.09.2021 08:16:11 13,7 C 89,0%
21.09.2021 08:09:08 13,5 C 89,0%
21.09.2021 08:02:05 13,3 C 89,0%
21.09.2021 07:55:03 13,4 C 89,0%
21.09.2021 07:48:00 13,4 C 89,0%
21.09.2021 07:40:59 13,4 C 89,0%
21.09.2021 07:33:56 13,4 C 89,0%
21.09.2021 07:26:55 13,4 C 89,0%
21.09.2021 07:19:54 13,3 C 89,0%
21.09.2021 07:12:53 13,3 C 89,0%
21.09.2021 07:05:52 13,3 C 89,0%
21.09.2021 06:58:48 13,3 C 89,0%
21.09.2021 06:51:48 13,2 C 89,0%
21.09.2021 06:44:46 13,2 C 89,0%
21.09.2021 06:37:45 13,2 C 89,0%
21.09.2021 06:30:44 13,3 C 89,0%
21.09.2021 06:23:41 13,2 C 89,0%
21.09.2021 06:16:40 13,2 C 89,0%
21.09.2021 06:09:37 13,3 C 89,0%
21.09.2021 06:02:33 13,2 C 89,0%
21.09.2021 05:55:31 13,2 C 89,0%
21.09.2021 05:48:28 13,3 C 89,0%
21.09.2021 05:41:27 13,3 C 89,0%
21.09.2021 05:34:25 13,5 C 89,0%
21.09.2021 05:27:23 13,5 C 90,0%
21.09.2021 05:20:23 13,6 C 90,0%
21.09.2021 05:13:21 13,7 C 89,0%
21.09.2021 05:06:19 13,8 C 89,0%
21.09.2021 04:59:19 13,8 C 90,0%
21.09.2021 04:52:15 13,8 C 90,0%
21.09.2021 04:45:12 13,7 C 90,0%
21.09.2021 04:38:09 13,8 C 90,0%
21.09.2021 04:31:07 13,7 C 90,0%
21.09.2021 04:24:05 13,7 C 90,0%
21.09.2021 04:17:04 13,8 C 90,0%
21.09.2021 04:10:03 13,9 C 90,0%
21.09.2021 04:03:02 13,9 C 90,0%
21.09.2021 03:56:02 13,8 C 90,0%
21.09.2021 03:48:59 13,8 C 90,0%
21.09.2021 03:41:58 13,8 C 90,0%
21.09.2021 03:34:57 13,8 C 90,0%
21.09.2021 03:27:55 13,8 C 90,0%
21.09.2021 03:20:53 13,7 C 90,0%
21.09.2021 03:13:51 13,7 C 90,0%
21.09.2021 03:06:48 13,7 C 90,0%
21.09.2021 02:59:46 13,7 C 90,0%
21.09.2021 02:52:45 13,6 C 91,0%
21.09.2021 02:45:42 13,6 C 91,0%
21.09.2021 02:38:39 13,6 C 91,0%
21.09.2021 02:31:38 13,6 C 91,0%
21.09.2021 02:24:37 13,5 C 91,0%
21.09.2021 02:17:36 13,4 C 91,0%
21.09.2021 02:10:35 13,4 C 91,0%
21.09.2021 02:03:34 13,5 C 91,0%
21.09.2021 01:56:31 13,5 C 90,0%
21.09.2021 01:49:30 13,6 C 90,0%
21.09.2021 01:42:26 13,7 C 90,0%
21.09.2021 01:35:25 13,7 C 90,0%
21.09.2021 01:28:23 13,7 C 90,0%
21.09.2021 01:21:21 13,7 C 90,0%
21.09.2021 01:14:20 13,8 C 90,0%
21.09.2021 01:07:19 13,7 C 90,0%
21.09.2021 01:00:15 13,7 C 90,0%
21.09.2021 00:53:14 13,8 C 90,0%
21.09.2021 00:46:12 13,8 C 90,0%
21.09.2021 00:39:12 14,0 C 90,0%
21.09.2021 00:32:09 13,9 C 90,0%
21.09.2021 00:25:06 13,8 C 90,0%
21.09.2021 00:18:03 13,8 C 90,0%
21.09.2021 00:11:02 13,8 C 90,0%
21.09.2021 00:04:01 13,7 C 90,0%